Zurück zum Katalog

FENGYUN 1C DEB

AktivSSO
NORAD 30657·DEBRIS·🇨🇳 China

Gestartet May 10, 1999 von Taiyuan Satellite Launch Center

Loading…

Nächste Überflüge (nächste 24 Stunden)

TLE

AktuellSource: Space-Track

Epoche: Sep 14, 2026, 06:12 UTC

1 30657U 99025APP 26257.25872034  .00003753  00000-0  11620-2 0  9999
2 30657  98.8422   9.1931 0015939 243.2473 146.7513 14.41755028 11973

Verfolge FENGYUN 1C DEB in Echtzeit mit AllMySat

Download on the App Store